EW9394 Weather Reports


Display with metric or nautical units.
time (UTC)temp
F
wind
direction
speed
MPH
gust
MPH
rain 1hr
in
rain 24hr
in
rain mn
in
humidity
%
barometer
mb
20260831220301 101 68 1.0 1.0 0.00 0.00 0.00 33 1014.9
20260831215756 100 136 3.0 3.0 0.00 0.00 0.00 33 1015.1
20260831215252 99 167 0.0 1.0 0.00 0.00 0.00 35 1015.0
20260831214749 99 195 0.0 1.0 0.00 0.00 0.00 35 1015.3
20260831214246 99 187 1.0 1.0 0.00 0.00 0.00 34 1015.2
20260831213741 100 80 3.0 5.0 0.00 0.00 0.00 33 1015.3
20260831213238 102 202 2.0 2.0 0.00 0.00 0.00 33 1015.4
20260831212737 102 80 1.0 1.0 0.00 0.00 0.00 34 1015.3
20260831212235 102 156 1.0 2.0 0.00 0.00 0.00 33 1015.2
20260831211732 102 167 2.0 2.0 0.00 0.00 0.00 33 1015.4
20260831211228 101 196 1.0 2.0 0.00 0.00 0.00 35 1015.5
20260831210722 101 88 2.0 2.0 0.00 0.00 0.00 35 1015.7
20260831210219 102 159 3.0 5.0 0.00 0.00 0.00 34 1015.5
20260831205718 102 194 3.0 5.0 0.00 0.00 0.00 34 1015.7
20260831205215 101 181 2.0 2.0 0.00 0.00 0.00 34 1015.8
20260831204714 100 106 2.0 2.0 0.00 0.00 0.00 35 1016.0
20260831204214 100 158 2.0 2.0 0.00 0.00 0.00 35 1016.0
20260831203708 101 65 0.0 1.0 0.00 0.00 0.00 34 1016.0
20260831203208 100 195 0.0 0.0 0.00 0.00 0.00 34 1016.1
20260831202706 102 63 2.0 2.0 0.00 0.00 0.00 34 1016.0
20260831202201 102 36 2.0 2.0 0.00 0.00 0.00 34 1016.2
20260831201655 101 52 1.0 1.0 0.00 0.00 0.00 32 1016.1
20260831201154 100 183 2.0 2.0 0.00 0.00 0.00 33 1016.4
20260831200651 100 183 0.0 0.0 0.00 0.00 0.00 34 1016.2
20260831200150 99 226 3.0 5.0 0.00 0.00 0.00 36 1016.5
20260831195646 100 115 1.0 2.0 0.00 0.00 0.00 36 1016.5
20260831195141 100 131 1.0 1.0 0.00 0.00 0.00 37 1016.6
20260831194636 100 220 4.0 6.0 0.00 0.00 0.00 37 1016.6
20260831194131 100 123 2.0 2.0 0.00 0.00 0.00 36 1016.7
20260831193626 100 67 1.0 2.0 0.00 0.00 0.00 36 1016.8
20260831193121 101 132 3.0 5.0 0.00 0.00 0.00 36 1017.1
20260831192616 100 128 1.0 1.0 0.00 0.00 0.00 37 1017.0
20260831192112 98 195 5.0 6.0 0.00 0.00 0.00 38 1016.9
20260831191608 98 125 4.0 6.0 0.00 0.00 0.00 38 1016.8
20260831191103 99 188 0.0 1.0 0.00 0.00 0.00 39 1017.0
20260831190558 100 2 2.0 2.0 0.00 0.00 0.00 38 1017.2
20260831190056 100 131 2.0 2.0 0.00 0.00 0.00 38 1017.0
20260831185553 100 118 3.0 5.0 0.00 0.00 0.00 38 1017.2
20260831185048 102 128 2.0 3.0 0.00 0.00 0.00 36 1017.3
20260831184548 101 226 3.0 3.0 0.00 0.00 0.00 37 1017.0
20260831184044 100 173 2.0 3.0 0.00 0.00 0.00 36 1017.3
20260831183542 99 224 1.0 1.0 0.00 0.00 0.00 38 1017.3
20260831183037 99 162 0.0 1.0 0.00 0.00 0.00 38 1017.6
20260831182536 99 129 7.0 11.0 0.00 0.00 0.00 37 1017.6
20260831182032 100 76 2.0 2.0 0.00 0.00 0.00 39 1017.5
20260831181527 98 182 2.0 3.0 0.00 0.00 0.00 39 1017.5
20260831181026 99 199 3.0 3.0 0.00 0.00 0.00 38 1017.9
20260831180521 99 146 4.0 6.0 0.00 0.00 0.00 39 1017.8
20260831180016 99 141 4.0 8.0 0.00 0.00 0.00 38 1017.8
20260831175512 97 85 3.0 3.0 0.00 0.00 0.00 41 1018.0
20260831175008 97 187 1.0 1.0 0.00 0.00 0.00 42 1018.0
20260831174503 98 198 6.0 7.0 0.00 0.00 0.00 42 1018.2
20260831174002 97 190 2.0 3.0 0.00 0.00 0.00 43 1018.2
20260831173501 99 191 2.0 2.0 0.00 0.00 0.00 43 1018.3
20260831172957 98 168 3.0 3.0 0.00 0.00 0.00 44 1018.5
20260831172452 97 271 2.0 2.0 0.00 0.00 0.00 43 1018.4
20260831171948 96 119 0.0 1.0 0.00 0.00 0.00 45 1018.4
20260831171443 96 175 5.0 6.0 0.00 0.00 0.00 44 1018.4
20260831170940 96 217 2.0 3.0 0.00 0.00 0.00 44 1018.7
20260831170436 95 197 4.0 5.0 0.00 0.00 0.00 46 1018.5
20260831165933 96 201 6.0 8.0 0.00 0.00 0.00 45 1018.6
20260831165428 97 180 7.0 10.0 0.00 0.00 0.00 44 1018.5
20260831164924 96 219 2.0 3.0 0.00 0.00 0.00 44 1018.4
20260831164420 96 171 1.0 1.0 0.00 0.00 0.00 45 1018.5
20260831163915 96 165 2.0 2.0 0.00 0.00 0.00 46 1018.6
20260831163411 95 128 3.0 3.0 0.00 0.00 0.00 47 1018.7
20260831162909 94 200 3.0 5.0 0.00 0.00 0.00 48 1018.7
20260831162405 94 191 4.0 5.0 0.00 0.00 0.00 49 1018.7
20260831161903 93 192 0.0 1.0 0.00 0.00 0.00 49 1019.0
20260831161400 94 198 5.0 6.0 0.00 0.00 0.00 48 1018.7
20260831160855 94 177 4.0 6.0 0.00 0.00 0.00 48 1019.0
20260831160349 93 200 5.0 6.0 0.00 0.00 0.00 48 1018.6
20260831155845 93 175 1.0 1.0 0.00 0.00 0.00 49 1018.7
20260831155344 92 200 2.0 5.0 0.00 0.00 0.00 50 1019.0
20260831154840 92 236 1.0 2.0 0.00 0.00 0.00 50 1018.6
20260831154337 92 183 6.0 7.0 0.00 0.00 0.00 50 1019.1
20260831153835 91 179 2.0 2.0 0.00 0.00 0.00 51 1018.6
20260831153331 91 236 2.0 2.0 0.00 0.00 0.00 52 1018.8
20260831152827 90 203 2.0 2.0 0.00 0.00 0.00 51 1018.8
20260831152322 90 188 2.0 3.0 0.00 0.00 0.00 52 1018.6
20260831151817 91 230 5.0 7.0 0.00 0.00 0.00 52 1018.9
20260831151316 90 276 1.0 2.0 0.00 0.00 0.00 55 1018.8
20260831150812 89 193 3.0 5.0 0.00 0.00 0.00 54 1018.6
20260831150307 89 189 3.0 5.0 0.00 0.00 0.00 54 1018.9
20260831145806 89 176 2.0 2.0 0.00 0.00 0.00 56 1018.8
20260831145306 88 177 2.0 2.0 0.00 0.00 0.00 56 1018.5
20260831144758 88 179 2.0 3.0 0.00 0.00 0.00 58 1018.4
20260831144254 87 250 1.0 2.0 0.00 0.00 0.00 58 1018.7
20260831143754 87 188 5.0 6.0 0.00 0.00 0.00 58 1018.7
20260831143249 87 169 3.0 3.0 0.00 0.00 0.00 61 1018.5
20260831142744 87 173 1.0 2.0 0.00 0.00 0.00 62 1018.3
20260831142240 87 166 4.0 5.0 0.00 0.00 0.00 61 1018.5
20260831141739 86 188 0.0 0.0 0.00 0.00 0.00 64 1018.5
20260831141234 86 174 1.0 2.0 0.00 0.00 0.00 65 1018.4
20260831140734 85 217 2.0 3.0 0.00 0.00 0.00 66 1018.6
20260831140228 84 200 2.0 3.0 0.00 0.00 0.00 67 1018.5
20260831135726 84 159 4.0 5.0 0.00 0.00 0.00 68 1018.4
20260831135222 83 183 1.0 1.0 0.00 0.00 0.00 70 1018.6
20260831134718 82 192 4.0 5.0 0.00 0.00 0.00 71 1018.4
20260831134214 82 203 1.0 1.0 0.00 0.00 0.00 72 1018.3
20260831133713 82 177 1.0 2.0 0.00 0.00 0.00 72 1018.4
20260831133207 81 149 2.0 3.0 0.00 0.00 0.00 72 1018.4
20260831132703 81 195 0.0 1.0 0.00 0.00 0.00 73 1018.3
20260831132202 81 188 1.0 1.0 0.00 0.00 0.00 73 1018.0
20260831131657 80 187 1.0 1.0 0.00 0.00 0.00 74 1018.1
20260831131154 80 194 0.0 0.0 0.00 0.00 0.00 74 1017.9
20260831130649 80 139 1.0 1.0 0.00 0.00 0.00 75 1017.8
20260831130144 80 192 0.0 1.0 0.00 0.00 0.00 75 1018.0
20260831125642 79 184 1.0 1.0 0.00 0.00 0.00 75 1018.0
20260831125138 79 198 1.0 1.0 0.00 0.00 0.00 75 1017.8
20260831124634 79 195 0.0 0.0 0.00 0.00 0.00 75 1017.9
20260831124130 79 194 0.0 0.0 0.00 0.00 0.00 75 1017.5
20260831123629 78 186 0.0 1.0 0.00 0.00 0.00 75 1017.6
20260831123129 78 196 0.0 0.0 0.00 0.00 0.00 75 1017.5
20260831122628 78 181 0.0 1.0 0.00 0.00 0.00 75 1017.5
20260831122125 78 197 0.0 1.0 0.00 0.00 0.00 75 1017.4
20260831121623 79 190 0.0 1.0 0.00 0.00 0.00 74 1017.4
20260831121120 79 199 0.0 1.0 0.00 0.00 0.00 74 1017.4
20260831120615 79 193 0.0 1.0 0.00 0.00 0.00 74 1017.2
20260831120110 79 194 0.0 0.0 0.00 0.00 0.00 73 1017.2
20260831115606 80 182 1.0 1.0 0.00 0.00 0.00 72 1017.2
20260831115101 80 175 1.0 1.0 0.00 0.00 0.00 72 1016.8
20260831114600 80 193 0.0 0.0 0.00 0.00 0.00 72 1017.0
20260831114055 80 174 1.0 1.0 0.00 0.00 0.00 72 1016.8
20260831113554 81 184 0.0 0.0 0.00 0.00 0.00 71 1016.9
20260831113050 81 189 0.0 1.0 0.00 0.00 0.00 71 1016.7
20260831112549 81 196 0.0 1.0 0.00 0.00 0.00 71 1016.7
20260831112044 81 217 1.0 1.0 0.00 0.00 0.00 71 1016.5
20260831111540 81 202 1.0 1.0 0.00 0.00 0.00 71 1016.7
20260831111036 82 195 0.0 0.0 0.00 0.00 0.00 70 1016.5
20260831110531 82 179 1.0 1.0 0.00 0.00 0.00 70 1016.5
20260831110026 82 193 0.0 0.0 0.00 0.00 0.00 70 1016.3
20260831105525 82 183 3.0 5.0 0.00 0.00 0.00 69 1016.6
20260831105020 82 171 3.0 3.0 0.00 0.00 0.00 69 1016.5
20260831104517 82 172 3.0 3.0 0.00 0.00 0.00 69 1016.4
20260831104012 82 196 1.0 1.0 0.00 0.00 0.00 69 1016.3
20260831103507 82 181 2.0 2.0 0.00 0.00 0.00 68 1016.3
20260831103003 82 195 0.0 1.0 0.00 0.00 0.00 68 1016.3
20260831102457 82 198 1.0 2.0 0.00 0.00 0.00 68 1016.5
20260831101952 82 195 3.0 3.0 0.00 0.00 0.00 68 1016.4
20260831101447 82 171 1.0 2.0 0.00 0.00 0.00 67 1016.2
20260831100943 83 203 2.0 2.0 0.00 0.00 0.00 67 1016.2
20260831100439 83 220 1.0 1.0 0.00 0.00 0.00 67 1016.3
20260831095934 83 178 2.0 2.0 0.00 0.00 0.00 66 1016.5
20260831095433 83 183 0.0 1.0 0.00 0.00 0.00 66 1016.4
20260831094928 83 181 2.0 2.0 0.00 0.00 0.00 65 1016.3
20260831094424 83 170 3.0 3.0 0.00 0.00 0.00 65 1016.3
20260831093920 83 200 1.0 2.0 0.00 0.00 0.00 65 1016.3
20260831093414 83 190 1.0 2.0 0.00 0.00 0.00 64 1016.3
20260831092911 84 179 2.0 2.0 0.00 0.00 0.00 64 1016.0
20260831092407 84 183 3.0 5.0 0.00 0.00 0.00 63 1016.2
20260831091902 84 181 1.0 2.0 0.00 0.00 0.00 62 1015.9
20260831091357 84 190 2.0 3.0 0.00 0.00 0.00 62 1015.9
20260831090852 84 188 3.0 3.0 0.00 0.00 0.00 61 1015.9
20260831090348 84 200 4.0 6.0 0.00 0.00 0.00 61 1015.8
20260831085844 84 192 0.0 1.0 0.00 0.00 0.00 60 1015.8
20260831085338 84 173 4.0 5.0 0.00 0.00 0.00 60 1016.0
20260831084833 84 195 1.0 1.0 0.00 0.00 0.00 60 1016.2
20260831084329 85 201 2.0 3.0 0.00 0.00 0.00 59 1016.0
20260831083825 84 173 1.0 2.0 0.00 0.00 0.00 59 1016.0
20260831083321 85 214 1.0 2.0 0.00 0.00 0.00 59 1015.9
20260831082819 85 211 1.0 2.0 0.00 0.00 0.00 59 1015.9
20260831082314 85 187 2.0 2.0 0.00 0.00 0.00 58 1015.8
20260831081810 85 192 1.0 2.0 0.00 0.00 0.00 58 1015.6
20260831081305 85 189 2.0 3.0 0.00 0.00 0.00 57 1015.8
20260831080800 86 176 3.0 3.0 0.00 0.00 0.00 57 1015.7
20260831080255 86 202 0.0 1.0 0.00 0.00 0.00 56 1015.6
20260831075751 86 210 2.0 2.0 0.00 0.00 0.00 56 1015.6
20260831075246 86 181 3.0 5.0 0.00 0.00 0.00 55 1015.7
20260831074746 86 114 3.0 3.0 0.00 0.00 0.00 54 1015.6
20260831074240 86 177 1.0 2.0 0.00 0.00 0.00 54 1015.6
20260831073736 87 240 3.0 5.0 0.00 0.00 0.00 53 1015.4
20260831073234 86 191 0.0 1.0 0.00 0.00 0.00 54 1015.8
20260831072729 86 164 3.0 5.0 0.00 0.00 0.00 54 1015.5
20260831072227 86 166 2.0 2.0 0.00 0.00 0.00 54 1015.6
20260831071726 86 174 0.0 1.0 0.00 0.00 0.00 55 1015.6
20260831071221 86 181 4.0 5.0 0.00 0.00 0.00 54 1015.5
20260831070715 86 183 2.0 3.0 0.00 0.00 0.00 54 1015.4
20260831070214 86 198 0.0 1.0 0.00 0.00 0.00 54 1015.3
20260831065708 86 198 1.0 2.0 0.00 0.00 0.00 54 1015.8
20260831065207 86 199 1.0 1.0 0.00 0.00 0.00 54 1015.8
20260831064702 86 195 1.0 1.0 0.00 0.00 0.00 54 1015.8
20260831064157 87 187 2.0 2.0 0.00 0.00 0.00 54 1015.5
20260831063653 87 181 1.0 2.0 0.00 0.00 0.00 54 1015.5
20260831063148 87 180 4.0 6.0 0.00 0.00 0.00 53 1015.5
20260831062648 87 185 1.0 2.0 0.00 0.00 0.00 53 1015.6
20260831062148 87 186 3.0 3.0 0.00 0.00 0.00 53 1015.6
20260831061646 87 200 2.0 2.0 0.00 0.00 0.00 53 1015.5
20260831061142 87 188 3.0 3.0 0.00 0.00 0.00 53 1015.7
20260831060638 87 185 0.0 0.0 0.00 0.00 0.00 53 1015.7
20260831060138 88 160 1.0 2.0 0.00 0.00 0.00 53 1015.6
20260831055637 88 190 3.0 3.0 0.00 0.00 0.00 52 1015.5
20260831055132 88 213 1.0 2.0 0.00 0.00 0.00 52 1015.8
20260831054632 88 175 3.0 3.0 0.00 0.00 0.00 52 1015.9
20260831054131 88 167 1.0 2.0 0.00 0.00 0.00 52 1015.8
20260831053626 88 206 1.0 2.0 0.00 0.00 0.00 52 1015.7
20260831053126 88 192 0.0 0.0 0.00 0.00 0.00 52 1015.7
20260831052625 88 197 0.0 1.0 0.00 0.00 0.00 51 1015.5
20260831052124 88 199 1.0 1.0 0.00 0.00 0.00 51 1015.5
20260831051622 88 173 3.0 5.0 0.00 0.00 0.00 51 1015.6
20260831051121 88 189 1.0 1.0 0.00 0.00 0.00 50 1015.5
20260831050616 89 199 1.0 1.0 0.00 0.00 0.00 50 1015.5
20260831050115 89 192 2.0 2.0 0.00 0.00 0.00 49 1015.5
20260831045614 89 205 3.0 3.0 0.00 0.00 0.00 49 1015.4
20260831045109 89 190 2.0 3.0 0.00 0.00 0.00 49 1015.4
20260831044605 89 185 1.0 2.0 0.00 0.00 0.00 49 1015.4
20260831044100 89 192 0.0 1.0 0.00 0.00 0.00 49 1015.4
20260831043555 88 191 0.0 1.0 0.00 0.00 0.00 50 1015.3
20260831043051 89 191 1.0 1.0 0.00 0.00 0.00 49 1015.5
20260831042550 89 196 1.0 1.0 0.00 0.00 0.00 49 1015.3
20260831042045 89 199 1.0 1.0 0.00 0.00 0.00 49 1015.4
20260831041539 89 194 1.0 1.0 0.00 0.00 0.00 49 1015.2
20260831041038 89 200 1.0 1.0 0.00 0.00 0.00 49 1015.4
20260831040533 89 190 1.0 1.0 0.00 0.00 0.00 48 1015.4
20260831040028 89 201 1.0 2.0 0.00 0.00 0.00 48 1015.4
20260831035525 89 199 0.0 1.0 0.00 0.00 0.00 48 1015.3
20260831035021 89 180 2.0 3.0 0.00 0.00 0.00 48 1015.2
20260831034515 89 210 3.0 3.0 0.00 0.00 0.00 48 1015.3
20260831034010 89 191 1.0 2.0 0.00 0.00 0.00 48 1014.9
20260831033506 89 194 1.0 1.0 0.00 0.00 0.00 48 1015.1
20260831033002 89 195 0.0 0.0 0.00 0.00 0.00 48 1014.8
20260831032501 89 182 1.0 1.0 0.00 0.00 0.00 48 1014.9
20260831031956 89 190 1.0 1.0 0.00 0.00 0.00 48 1015.2
20260831031456 89 190 0.0 0.0 0.00 0.00 0.00 48 1015.2
20260831030955 89 194 1.0 1.0 0.00 0.00 0.00 48 1015.2
20260831030455 89 197 0.0 0.0 0.00 0.00 0.00 48 1015.3
20260831025952 89 193 0.0 0.0 0.00 0.00 0.00 48 1014.9
20260831025447 90 198 1.0 1.0 0.00 0.00 0.00 48 1014.9
20260831024942 90 193 0.0 0.0 0.00 0.00 0.00 48 1014.9
20260831024442 90 189 0.0 0.0 0.00 0.00 0.00 48 1014.9
20260831023937 90 199 0.0 1.0 0.00 0.00 0.00 48 1014.8
20260831023435 90 196 0.0 0.0 0.00 0.00 0.00 49 1014.8
20260831022930 90 199 0.0 0.0 0.00 0.00 0.00 49 1015.1
20260831022429 90 193 0.0 1.0 0.00 0.00 0.00 48 1014.6
20260831021924 91 189 1.0 1.0 0.00 0.00 0.00 48 1014.7
20260831021423 91 195 0.0 0.0 0.00 0.00 0.00 48 1014.4
20260831020920 91 194 0.0 0.0 0.00 0.00 0.00 47 1014.5
20260831020419 91 196 0.0 0.0 0.00 0.00 0.00 46 1014.3
20260831015914 92 184 1.0 1.0 0.00 0.00 0.00 46 1014.4
20260831015410 92 169 1.0 1.0 0.00 0.00 0.00 45 1014.4
20260831014910 92 168 0.0 0.0 0.00 0.00 0.00 45 1014.1
20260831014404 92 190 0.0 0.0 0.00 0.00 0.00 45 1014.1
20260831013900 93 178 0.0 0.0 0.00 0.00 0.00 44 1013.8
20260831013355 93 148 1.0 1.0 0.00 0.00 0.00 44 1013.9
20260831012850 93 178 1.0 1.0 0.00 0.00 0.00 43 1013.7
20260831012346 94 137 2.0 2.0 0.00 0.00 0.00 42 1013.9
20260831011845 94 168 1.0 1.0 0.00 0.00 0.00 42 1013.8
20260831011340 94 159 2.0 2.0 0.00 0.00 0.00 42 1013.6
20260831010831 94 148 1.0 1.0 0.00 0.00 0.00 42 1013.7
20260831010330 94 184 0.0 0.0 0.00 0.00 0.00 42 1013.7
20260831005826 95 182 0.0 1.0 0.00 0.00 0.00 41 1013.6
20260831005322 95 167 2.0 2.0 0.00 0.00 0.00 41 1013.7
20260831004816 95 144 1.0 2.0 0.00 0.00 0.00 40 1013.7
20260831004312 95 169 2.0 3.0 0.00 0.00 0.00 40 1013.4
20260831003807 96 175 1.0 2.0 0.00 0.00 0.00 40 1013.5
20260831003304 96 185 0.0 1.0 0.00 0.00 0.00 40 1013.6
20260831002803 96 181 0.0 0.0 0.00 0.00 0.00 39 1013.7
20260831002305 96 169 1.0 1.0 0.00 0.00 0.00 39 1013.5
20260831001758 96 170 1.0 1.0 0.00 0.00 0.00 39 1013.7
20260831001253 97 177 3.0 5.0 0.00 0.00 0.00 39 1013.6
20260831000745 97 154 2.0 2.0 0.00 0.00 0.00 38 1013.7
20260831000244 98 131 2.0 2.0 0.00 0.00 0.00 38 1013.7
20260830235743 98 126 2.0 2.0 0.00 0.00 0.00 38 1013.9
20260830235238 98 185 2.0 2.0 0.00 0.00 0.00 38 1013.8
20260830234733 98 182 2.0 3.0 0.00 0.00 0.00 37 1013.9
20260830234229 98 124 2.0 3.0 0.00 0.00 0.00 37 1013.8
20260830233724 99 143 2.0 2.0 0.00 0.00 0.00 37 1013.8
20260830233220 99 141 3.0 5.0 0.00 0.00 0.00 37 1013.8
20260830232715 98 220 3.0 7.0 0.00 0.00 0.00 37 1013.7
20260830232211 98 56 1.0 1.0 0.00 0.00 0.00 37 1013.8
20260830231708 98 132 1.0 2.0 0.00 0.00 0.00 38 1013.9
20260830231207 99 92 3.0 5.0 0.00 0.00 0.00 37 1013.9
20260830230702 100 108 2.0 5.0 0.00 0.00 0.00 36 1013.8
20260830230157 100 201 3.0 3.0 0.00 0.00 0.00 34 1013.7
20260830225651 100 200 1.0 2.0 0.00 0.00 0.00 34 1013.7
20260830225146 101 208 4.0 5.0 0.00 0.00 0.00 34 1014.0
20260830224645 100 53 1.0 3.0 0.00 0.00 0.00 36 1014.0
20260830224141 101 128 3.0 3.0 0.00 0.00 0.00 35 1014.0
20260830223638 99 84 1.0 2.0 0.00 0.00 0.00 35 1013.9
20260830223137 99 205 2.0 2.0 0.00 0.00 0.00 35 1014.0
20260830222632 99 142 1.0 2.0 0.00 0.00 0.00 36 1014.1
20260830222128 99 98 3.0 5.0 0.00 0.00 0.00 34 1014.3
20260830221624 101 192 4.0 5.0 0.00 0.00 0.00 34 1014.0
20260830221120 102 202 2.0 3.0 0.00 0.00 0.00 34 1014.1
20260830220615 102 107 1.0 2.0 0.00 0.00 0.00 33 1014.1